{"data":{"norad_id":57199,"intl_designator":"2023-091AK","name":"SITRO-AIS 10 (BURDAEV)","alt_names":[],"object_type":"PAYLOAD","status":"ACTIVE","operator":null,"country":"CIS","launch_date":"2023-06-27","launch_site_code":"VOSTO","launch_vehicle":null,"mission":null,"orbit_class":"UNKNOWN","rcs_meters":null,"size_class":null,"mass_kg":null,"dimensions":null,"purposes":["tech_demo"],"wikipedia_slug":null,"has_3d_model":false,"image_url":null,"decayed_at":null,"tle_current":{"epoch":"2026-05-25T03:42:28.056960Z","epoch_age_seconds":72182,"freshness":"FRESH","line1":"1 57199U 23091AK  26145.15449140  .00019001  00000+0  51594-3 0  9999","line2":"2 57199  97.5092 215.1622 0007940 147.4885 212.6850 15.37605032161229","mean_motion":15.37605032,"eccentricity":0.000794,"inclination_deg":97.5092,"raan_deg":215.1622,"arg_perigee_deg":147.4885,"mean_anomaly_deg":212.685,"bstar":0.00051594,"rev_number":16122,"period_min":93.652138880357,"perigee_km":447.76968384764,"apogee_km":458.61783709527,"semimajor_km":6831.3307604715,"source":"CELESTRAK","updated_at":"2026-05-25T13:38:25.533310Z"}}}